Regional Weather Roundup
Issued by NWS

Home | Current Version | Previous Version | Text Only | Print | Product List | Glossary On
Versions: 1 2 3 4 5 6 7 8 9 10 11 12 13 14 15 16 17 18 19 20 21 22 23 24 25 26 27 28 29 30 31 32 33 34 35 36 37 38 39 40 41 42 43 44 45 46 47 48 49 50
000
ASUS45 KBOU 202007
RWRCO

WEATHER ROUNDUP FOR COLORADO
NATIONAL WEATHER SERVICE DENVER/BOULDER CO
200 PM MDT WED AUG 20 2014

NOTE: "FAIR" INDICATES FEW OR NO CLOUDS BELOW 12000 FEET WITH NO
SIGNIFICANT WEATHER AND/OR OBSTRUCTIONS TO VISIBILITY.

COZ001>005-013-030-031-202100-
...NORTHWEST COLORADO...

CITY           SKY/WX    TMP DP  RH WIND       PRES   REMARKS
CRAIG          LGT RAIN  63  60  90 CALM      30.10F FOG
HAYDEN         PTSUNNY   63  54  72 NW10G16   30.12R THUNDER
MEEKER         PTSUNNY   72  51  47 W10       30.08F
MOUNT WERNER   NOT AVBL
STEAMBOAT SPGS CLOUDY    65  52  61 W17G26    30.11R
WALDEN         MOSUNNY   68  43  40 SW13G18   30.16F
$$

COZ006>008-011-202100-
...WEST CENTRAL VALLEYS...

CITY           SKY/WX    TMP DP  RH WIND       PRES   REMARKS
GRAND JUNCTION MOSUNNY   76  54  46 SW3       30.02F
MONTROSE       MOSUNNY   78  49  35 N6        30.08F
EAGLE          PTSUNNY   70  46  43 SW12      30.14R
RIFLE          MOSUNNY   75  48  38 W16       30.04S
DELTA          MOSUNNY   81  50  33 W17       30.04S
NUCLA          MOSUNNY   75  41  29 S3G9      30.13S
$$

COZ017>023-064>068-202100-
...SOUTHWEST COLORADO...

CITY           SKY/WX    TMP DP  RH WIND       PRES   REMARKS
DURANGO        PTSUNNY   75  41  29 SW12G20   30.14F
CORTEZ         SUNNY     79  45  29 NW16      30.13F
PAGOSA SPRINGS PTSUNNY   73  40  31 W8        30.20F
TELLURIDE      NOT AVBL
WOLF CREEK PAS NOT AVBL
$$

COZ009-010-012-014-032>034-037-058>063-202100-
...CENTRAL COLORADO...

CITY           SKY/WX    TMP DP  RH WIND       PRES   REMARKS
ASPEN          LGT RAIN  61  51  70 NW13G21   30.21R
BUENA VISTA    MOSUNNY   75  37  24 W12G21    30.15S
COPPER MTN     CLOUDY    55  41  58 W14G21    30.47R
BERTHOUD PASS  CLOUDY    46  45  93 W9G16     30.51R
COTTONWOOD PAS MOSUNNY   72  34  25 NW5       30.29F
GUNNISON       MOSUNNY   72  41  33 SW10G16   30.19S
KREMMLING      MOSUNNY   73  36  25 W9G20     30.14F
LEADVILLE      CLOUDY    64  39  39 N7        30.29S
MONARCH PASS   MOSUNNY   54  37  54 W30G36    30.55F
SALIDA         MOSUNNY   80  38  22 SW12      30.18F
SUNLIGHT       CLOUDY    54  50  87 CALM      30.41R
WILKERSON PASS NOT AVBL
$$

COZ069>075-202100-
...SAN LUIS VALLEY/SANGRE DE CRISTO MOUNTAINS...

CITY           SKY/WX    TMP DP  RH WIND       PRES   REMARKS
ALAMOSA        MOSUNNY   76  43  30 S8        30.14F
LA VETA PASS   NOT AVBL
SAGUACHE       MOSUNNY   73  41  31 W6        30.16F
$$

COZ035-036-038>040-202100-
...NORTHERN COLORADO FRONT RANGE...

CITY           SKY/WX    TMP DP  RH WIND       PRES   REMARKS
DENVER INTL AP PTSUNNY   84  49  29 N7        29.94F
DMNS CITY PARK   N/A     84  46  26 NE2       29.93F
AURORA         PTSUNNY   84  48  28 NW5       29.97F
FRONT RANGE AP NOT AVBL
ERIE MUNI ARPT MOSUNNY   87  38  17 MISG      29.92S
BOULDER MUN AP MOSUNNY   82  43  24 NW12G18   29.93S
CENTENNIAL     PTSUNNY   81  46  29 VRB5      29.98S
BROOMFIELD     NOT AVBL
FORT COLLINS   MOSUNNY   88  50  27 S3        29.90S
LONGMONT       MOSUNNY   90  41  18 W14G24    29.92F
$$

COZ041-046-047-076>085-087-088-202100-
...PIKES PEAK/PALMER DIVIDE AND SOUTHERN FOOTHILLS...

CITY           SKY/WX    TMP DP  RH WIND       PRES   REMARKS
COLO. SPRINGS  CLOUDY    82  46  28 VRB5      30.00F
A. F. ACADEMY  DRIZZLE   74  49  41 E14G28    30.03S
ELLICOTT       CLOUDY    82  46  28 S14G26    29.99F
FALCON         CLOUDY    79  46  31 N3        30.06S
FORT CARSON    CLOUDY    82  50  32 NE3       29.98S
LIMON          PTSUNNY   88  45  22 NE5       29.94F
MONUMENT HILL  PTSUNNY   75  45  33 NE5       30.07S
TRINIDAD       CLOUDY    87  45  23 SW8       29.97F
$$

COZ042>045-048>051-090-091-202100-
...NORTHEAST COLORADO...

CITY           SKY/WX    TMP DP  RH WIND       PRES   REMARKS
GREELEY ARPT   MOSUNNY   88  52  29 SE3       29.91S
AKRON          SUNNY     85  52  32 VRB7      29.90F
BURLINGTON     MOSUNNY   91  50  24 N6        29.86F
WRAY             N/A     92  51  24 N5        29.83F
STERLING       SUNNY     91  57  31 S6        29.84S
HOLYOKE        NOT AVBL
FORT MORGAN    SUNNY     86  51  29 S8        29.90S
$$

COZ086-089-092>099-202100-
...SOUTHEAST COLORADO...

CITY           SKY/WX    TMP DP  RH WIND       PRES   REMARKS
PUEBLO         CLOUDY    90  45  21 W13       29.89S
LA JUNTA       PTSUNNY   94  48  20 NW7       29.86S
LAMAR          PTSUNNY   97  46  17 SW7       29.79F
SPRINGFIELD      N/A     93  46  19 SW15G21   29.86F
$$


USA.gov is the U.S. government's official web portal to all federal, state and local government web resources and services.